TimeCST,TemperatureF,Dew PointF,Humidity,Sea Level PressureIn,VisibilityMPH,Wind Direction,Wind SpeedMPH,Gust SpeedMPH,PrecipitationIn,Events,Conditions,WindDirDegrees,DateUTC
12:53 AM,16.0,1.0,52,30.52,10.0,NNE,17.3,21.9,N/A,,Clear,20,2013-01-24 06:53:00
1:53 AM,14.0,1.0,56,30.54,10.0,NNE,11.5,-,N/A,,Clear,20,2013-01-24 07:53:00
2:53 AM,10.9,-0.0,61,30.57,10.0,NNE,16.1,-,N/A,,Clear,30,2013-01-24 08:53:00
3:53 AM,10.0,-0.9,61,30.56,10.0,NNE,13.8,-,N/A,,Clear,30,2013-01-24 09:53:00
4:53 AM,8.1,-2.0,64,30.56,10.0,NNE,11.5,-,N/A,,Clear,30,2013-01-24 10:53:00
5:53 AM,8.1,-2.9,61,30.56,10.0,ENE,9.2,-,N/A,,Clear,60,2013-01-24 11:53:00
6:53 AM,7.0,-2.9,64,30.57,10.0,ENE,11.5,-,N/A,,Clear,60,2013-01-24 12:53:00
7:53 AM,8.1,-2.9,61,30.57,10.0,East,10.4,-,N/A,,Clear,80,2013-01-24 13:53:00
8:53 AM,8.1,-2.9,61,30.59,10.0,East,11.5,-,N/A,,Clear,80,2013-01-24 14:53:00
9:53 AM,12.0,-2.0,53,30.59,10.0,ENE,11.5,-,N/A,,Clear,70,2013-01-24 15:53:00
10:53 AM,14.0,-0.9,52,30.56,10.0,ESE,11.5,-,N/A,,Clear,120,2013-01-24 16:53:00
11:53 AM,18.0,-0.0,45,30.53,10.0,ESE,6.9,-,N/A,,Clear,110,2013-01-24 17:53:00
12:53 PM,19.9,-0.0,42,30.48,10.0,SE,8.1,-,N/A,,Clear,130,2013-01-24 18:53:00
1:53 PM,21.0,-0.0,40,30.40,10.0,ESE,12.7,-,N/A,,Clear,110,2013-01-24 19:53:00
2:53 PM,21.9,1.0,40,30.39,10.0,ESE,8.1,-,N/A,,Clear,110,2013-01-24 20:53:00
3:53 PM,23.0,1.0,39,30.33,10.0,ESE,11.5,-,N/A,,Clear,110,2013-01-24 21:53:00
4:53 PM,21.9,1.9,42,30.33,10.0,ESE,12.7,-,N/A,,Scattered Clouds,120,2013-01-24 22:53:00
5:53 PM,21.9,3.0,44,30.31,10.0,ESE,12.7,-,N/A,,Overcast,120,2013-01-24 23:53:00
6:53 PM,23.0,3.9,44,30.28,10.0,ESE,11.5,-,N/A,,Overcast,120,2013-01-25 00:53:00
7:38 PM,23.0,5.0,46,30.26,10.0,SE,9.2,-,N/A,,Overcast,130,2013-01-25 01:38:00
7:53 PM,23.0,5.0,46,30.31,10.0,SE,8.1,-,N/A,,Overcast,140,2013-01-25 01:53:00
8:53 PM,24.1,6.1,46,30.28,10.0,SE,9.2,-,N/A,,Overcast,140,2013-01-25 02:53:00
9:53 PM,24.1,6.1,46,30.25,10.0,SE,6.9,-,N/A,,Overcast,140,2013-01-25 03:53:00
10:53 PM,24.1,7.0,48,30.24,10.0,SSE,8.1,-,N/A,,Overcast,150,2013-01-25 04:53:00
11:53 PM,25.0,7.0,46,30.27,10.0,Calm,Calm,-,N/A,,Overcast,0,2013-01-25 05:53:00